| time (UTC) | temp C | wind direction | speed KPH | gust KPH | rain 1hr cm | rain 24hr cm | rain mn cm | humidity % | barometer mb |
| 20260506080556 | 16 | 292 | 0.0 | 0.0 | 0.00 | 0.30 | 0.00 | 79 | 1059.0 |
| 20260506070857 | 15 | 315 | 0.0 | 0.0 | 0.00 | 0.30 | 0.00 | 86 | 1059.0 |
| 20260506061156 | 12 | 135 | 0.0 | 0.0 | 0.00 | 0.30 | 0.00 | 86 | 1059.0 |
| 20260506043657 | 10 | 158 | 0.0 | 0.0 | 0.00 | 0.30 | 0.00 | 87 | 1059.0 |
| 20260506041755 | 10 | 158 | 0.0 | 0.0 | 0.00 | 0.30 | 0.00 | 87 | 1059.0 |
| 20260506035854 | 10 | 158 | 0.0 | 0.0 | 0.00 | 0.30 | 0.00 | 87 | 1059.0 |
| 20260506033955 | 10 | 158 | 0.0 | 0.0 | 0.00 | 0.30 | 0.00 | 87 | 1059.0 |
| 20260506032055 | 11 | 158 | 0.0 | 0.0 | 0.00 | 0.30 | 0.00 | 87 | 1059.0 |
| 20260506030154 | 11 | 158 | 0.0 | 0.0 | 0.00 | 0.30 | 0.00 | 87 | 1059.0 |
| 20260506024255 | 11 | 158 | 0.0 | 0.0 | 0.00 | 0.30 | 0.00 | 86 | 1059.0 |
| 20260506022357 | 11 | 135 | 0.0 | 0.0 | 0.00 | 0.30 | 0.00 | 87 | 1059.0 |
| 20260506020455 | 11 | 135 | 0.0 | 0.0 | 0.00 | 0.30 | 0.00 | 87 | 1059.0 |
| 20260506014636 | 11 | 135 | 0.0 | 0.0 | 0.00 | 0.30 | 0.00 | 87 | 1059.0 |
| 20260506014556 | 11 | 135 | 0.0 | 0.0 | 0.00 | 0.30 | 0.00 | 87 | 1059.0 |
| 20260506012657 | 11 | 158 | 0.0 | 0.0 | 0.00 | 0.30 | 0.00 | 87 | 1059.0 |
| 20260506010758 | 11 | 158 | 0.0 | 0.0 | 0.00 | 0.30 | 0.00 | 87 | 1059.0 |
| 20260506004856 | 12 | 135 | 0.0 | 0.0 | 0.00 | 0.30 | 0.00 | 87 | 1059.0 |
| 20260506002956 | 12 | 135 | 0.0 | 0.0 | 0.00 | 0.30 | 0.00 | 87 | 1060.0 |
| 20260506001055 | 12 | 158 | 0.0 | 0.0 | 0.00 | 0.30 | 0.00 | 87 | 1060.0 |
| 20260505233255 | 12 | 158 | 0.0 | 0.0 | 0.00 | 0.30 | 0.00 | 87 | 1060.0 |
| 20260505231355 | 12 | 158 | 0.0 | 0.0 | 0.00 | 0.30 | 0.00 | 87 | 1060.0 |
| 20260505225457 | 12 | 158 | 0.0 | 0.0 | 0.00 | 0.30 | 0.00 | 87 | 1060.0 |
| 20260505223557 | 12 | 158 | 0.0 | 0.0 | 0.00 | 0.30 | 0.00 | 87 | 1060.0 |
| 20260505221655 | 13 | 135 | 0.0 | 0.0 | 0.00 | 0.30 | 0.00 | 87 | 1060.0 |
| 20260505215755 | 13 | 135 | 0.0 | 0.0 | 0.00 | 0.30 | 0.00 | 87 | 1060.0 |
| 20260505210057 | 14 | 135 | 0.0 | 0.0 | 0.00 | 0.30 | 0.00 | 86 | 1060.0 |
| 20260505204156 | 14 | 135 | 0.0 | 0.0 | 0.00 | 0.30 | 0.00 | 86 | 1060.0 |
| 20260505202257 | 15 | 158 | 0.0 | 0.0 | 0.10 | 0.30 | 0.00 | 87 | 1060.0 |
| 20260505200356 | 15 | 112 | 0.0 | 0.0 | 0.15 | 0.30 | 0.00 | 87 | 1060.0 |
| 20260505194456 | 15 | 135 | 0.0 | 0.0 | 0.20 | 0.30 | 0.00 | 87 | 1060.0 |
| 20260505192555 | 15 | 248 | 0.0 | 0.0 | 0.10 | 0.20 | 0.00 | 86 | 1060.0 |
| 20260505190656 | 15 | 135 | 0.0 | 0.0 | 0.05 | 0.15 | 0.00 | 85 | 1060.0 |
| 20260505182857 | 16 | 135 | 0.0 | 0.0 | 0.00 | 0.10 | 0.00 | 81 | 1059.0 |
| 20260505180957 | 17 | 135 | 0.0 | 0.0 | 0.00 | 0.10 | 0.00 | 79 | 1059.0 |
| 20260505175059 | 17 | 135 | 0.0 | 0.0 | 0.00 | 0.10 | 0.00 | 78 | 1059.0 |
| 20260505173155 | 18 | 135 | 0.0 | 0.0 | 0.00 | 0.10 | 0.00 | 77 | 1059.0 |
| 20260505171255 | 18 | 135 | 0.0 | 0.0 | 0.00 | 0.10 | 0.00 | 78 | 1059.0 |
| 20260505165355 | 18 | 135 | 0.0 | 0.0 | 0.00 | 0.10 | 0.00 | 78 | 1059.0 |
| 20260505163456 | 18 | 158 | 0.0 | 0.0 | 0.00 | 0.10 | 0.00 | 77 | 1059.0 |
| 20260505161556 | 19 | 135 | 0.0 | 0.0 | 0.00 | 0.10 | 0.00 | 77 | 1060.0 |
| 20260505140256 | 17 | 135 | 0.0 | 0.0 | 0.05 | 0.05 | 0.00 | 83 | 1061.0 |
| 20260505124655 | 18 | 135 | 0.0 | 0.0 | 0.00 | 0.00 | 0.00 | 72 | 1061.0 |
| 20260505120953 | 22 | 338 | 0.0 | 0.0 | 0.00 | 0.00 | 0.00 | 58 | 1060.0 |
| 20260505120857 | 22 | 338 | 0.0 | 0.0 | 0.00 | 0.00 | 0.00 | 58 | 1060.0 |
| 20260505114957 | 23 | 0 | 0.0 | 0.0 | 0.00 | 0.00 | 0.00 | 57 | 1060.0 |
| 20260505113058 | 22 | 270 | 0.0 | 0.0 | 0.00 | 0.00 | 0.00 | 60 | 1060.0 |
| 20260505111157 | 21 | 225 | 0.0 | 0.0 | 0.00 | 0.00 | 0.00 | 63 | 1061.0 |
| 20260505101457 | 20 | 292 | 0.0 | 0.0 | 0.00 | 0.00 | 0.00 | 63 | 1061.0 |
| 20260505095556 | 20 | 135 | 0.0 | 0.0 | 0.00 | 0.00 | 0.00 | 64 | 1061.0 |
| 20260505093657 | 19 | 248 | 0.0 | 0.0 | 0.00 | 0.00 | 0.00 | 66 | 1061.0 |
| 20260505091758 | 19 | 248 | 0.0 | 0.0 | 0.00 | 0.00 | 0.00 | 67 | 1061.0 |
| 20260505085855 | 19 | 270 | 0.0 | 0.0 | 0.00 | 0.00 | 0.00 | 67 | 1061.0 |
| 20260505083958 | 19 | 135 | 0.0 | 0.0 | 0.00 | 0.00 | 0.00 | 68 | 1062.0 |
| 20260505082056 | 19 | 112 | 0.0 | 0.0 | 0.00 | 0.00 | 0.00 | 68 | 1062.0 |